Time,TemperatureF,DewpointF,PressureIn,WindDirection,WindDirectionDegrees,WindSpeedMPH,WindSpeedGustMPH,Humidity,HourlyPrecipIn,Conditions,Clouds,dailyrainin,SoftwareType,DateUTC
2013-07-12 00:13:00,57.3,56.0,29.98,NNE,12,0.0,0.0,94,0.00,,,0.00,weatherlink.com 1.10,2013-07-12 04:13:00,
2013-07-12 00:28:00,57.3,56.0,29.98,NNE,12,0.0,0.0,94,0.00,,,0.00,weatherlink.com 1.10,2013-07-12 04:28:00,
2013-07-12 00:43:00,57.5,55.0,29.98,NNE,12,0.0,0.0,92,0.00,,,0.00,weatherlink.com 1.10,2013-07-12 04:43:00,
2013-07-12 00:58:00,57.6,56.0,29.98,NNE,12,0.0,0.0,93,0.00,,,0.00,weatherlink.com 1.10,2013-07-12 04:58:00,
2013-07-12 01:13:00,57.5,56.0,29.98,NNE,12,0.0,0.0,93,0.00,,,0.00,weatherlink.com 1.10,2013-07-12 05:13:00,
2013-07-12 01:28:00,57.9,56.0,29.98,NNE,12,0.0,0.0,93,0.00,,,0.00,weatherlink.com 1.10,2013-07-12 05:28:00,
2013-07-12 01:43:00,58.0,56.0,29.98,NNE,12,0.0,0.0,92,0.00,,,0.00,weatherlink.com 1.10,2013-07-12 05:43:00,
2013-07-12 01:58:00,57.7,55.0,29.99,NNE,12,0.0,0.0,91,0.00,,,0.00,weatherlink.com 1.10,2013-07-12 05:58:00,
2013-07-12 02:14:00,57.5,55.0,29.99,NNE,12,0.0,0.0,92,0.00,,,0.00,weatherlink.com 1.10,2013-07-12 06:14:00,
2013-07-12 02:29:00,57.2,55.0,30.00,NNE,12,0.0,0.0,92,0.00,,,0.00,weatherlink.com 1.10,2013-07-12 06:29:00,
2013-07-12 02:44:00,56.9,55.0,30.00,NNE,12,0.0,0.0,93,0.00,,,0.00,weatherlink.com 1.10,2013-07-12 06:44:00,
2013-07-12 02:59:00,57.1,55.0,30.00,NNE,12,0.0,0.0,91,0.00,,,0.00,weatherlink.com 1.10,2013-07-12 06:59:00,
2013-07-12 03:14:00,57.2,54.0,30.01,NNE,12,0.0,0.0,90,0.00,,,0.00,weatherlink.com 1.10,2013-07-12 07:14:00,
2013-07-12 03:29:00,57.1,55.0,30.01,NW,309,0.0,0.0,91,0.00,,,0.00,weatherlink.com 1.10,2013-07-12 07:29:00,
2013-07-12 03:44:00,56.8,54.0,30.02,NW,309,0.0,0.0,91,0.00,,,0.00,weatherlink.com 1.10,2013-07-12 07:44:00,
2013-07-12 03:59:00,56.5,54.0,30.02,NW,309,0.0,0.0,91,0.00,,,0.00,weatherlink.com 1.10,2013-07-12 07:59:00,
2013-07-12 04:14:00,56.3,54.0,30.03,NW,309,0.0,0.0,91,0.00,,,0.00,weatherlink.com 1.10,2013-07-12 08:14:00,
2013-07-12 04:29:00,56.3,54.0,30.03,NW,312,0.0,0.0,91,0.00,,,0.00,weatherlink.com 1.10,2013-07-12 08:29:00,
2013-07-12 04:44:00,56.2,53.0,30.04,NW,311,0.0,1.0,90,0.00,,,0.00,weatherlink.com 1.10,2013-07-12 08:44:00,
2013-07-12 04:59:00,56.2,53.0,30.04,NW,312,0.0,0.0,90,0.00,,,0.00,weatherlink.com 1.10,2013-07-12 08:59:00,
2013-07-12 05:14:00,55.9,53.0,30.05,NW,312,0.0,1.0,91,0.00,,,0.00,weatherlink.com 1.10,2013-07-12 09:14:00,
2013-07-12 05:29:00,56.0,54.0,30.05,NW,312,0.0,1.0,91,0.00,,,0.00,weatherlink.com 1.10,2013-07-12 09:29:00,
2013-07-12 05:44:00,56.1,53.0,30.06,NNW,343,0.0,1.0,90,0.00,,,0.00,weatherlink.com 1.10,2013-07-12 09:44:00,
2013-07-12 05:59:00,56.1,54.0,30.06,NNW,343,0.0,0.0,91,0.00,,,0.00,weatherlink.com 1.10,2013-07-12 09:59:00,
2013-07-12 06:14:00,56.2,54.0,30.07,NNW,342,0.0,0.0,91,0.00,,,0.00,weatherlink.com 1.10,2013-07-12 10:14:00,
2013-07-12 06:29:00,56.4,54.0,30.07,NNW,342,0.0,0.0,91,0.00,,,0.00,weatherlink.com 1.10,2013-07-12 10:29:00,
2013-07-12 06:44:00,56.6,54.0,30.07,NNW,342,0.0,0.0,91,0.00,,,0.00,weatherlink.com 1.10,2013-07-12 10:44:00,
2013-07-12 06:59:00,56.9,54.0,30.08,NNW,342,0.0,0.0,91,0.00,,,0.00,weatherlink.com 1.10,2013-07-12 10:59:00,
2013-07-12 07:14:00,57.5,55.0,30.08,NNW,343,0.0,0.0,90,0.00,,,0.00,weatherlink.com 1.10,2013-07-12 11:14:00,
2013-07-12 07:29:00,58.2,56.0,30.09,NNW,343,0.0,0.0,91,0.00,,,0.00,weatherlink.com 1.10,2013-07-12 11:29:00,
2013-07-12 07:44:00,58.8,56.0,30.10,NNW,343,0.0,0.0,90,0.00,,,0.00,weatherlink.com 1.10,2013-07-12 11:44:00,
2013-07-12 07:59:00,59.1,56.0,30.10,NNW,343,0.0,0.0,89,0.00,,,0.00,weatherlink.com 1.10,2013-07-12 11:59:00,
2013-07-12 08:14:00,60.5,56.0,30.11,West,277,0.0,2.0,85,0.00,,,0.00,weatherlink.com 1.10,2013-07-12 12:14:00,
2013-07-12 08:29:00,61.1,56.0,30.10,NW,323,1.0,2.0,83,0.00,,,0.00,weatherlink.com 1.10,2013-07-12 12:29:00,
2013-07-12 08:44:00,62.5,57.0,30.11,West,269,0.0,2.0,83,0.00,,,0.00,weatherlink.com 1.10,2013-07-12 12:44:00,
2013-07-12 08:59:00,63.7,57.0,30.11,West,266,0.0,7.0,78,0.00,,,0.00,weatherlink.com 1.10,2013-07-12 12:59:00,
2013-07-12 09:14:00,64.4,56.0,30.11,NW,324,0.0,4.0,74,0.00,,,0.00,weatherlink.com 1.10,2013-07-12 13:14:00,
2013-07-12 09:30:00,65.0,57.0,30.11,WNW,286,0.0,4.0,74,0.00,,,0.00,weatherlink.com 1.10,2013-07-12 13:30:00,
2013-07-12 09:45:00,65.4,56.0,30.11,WNW,294,1.0,4.0,72,0.00,,,0.00,weatherlink.com 1.10,2013-07-12 13:45:00,
2013-07-12 10:00:00,65.8,57.0,30.12,West,278,2.0,3.0,72,0.00,,,0.00,weatherlink.com 1.10,2013-07-12 14:00:00,
2013-07-12 10:15:00,66.4,56.0,30.12,West,278,1.0,5.0,70,0.00,,,0.00,weatherlink.com 1.10,2013-07-12 14:15:00,
2013-07-12 10:30:00,67.3,60.0,30.12,SW,222,0.0,4.0,76,0.00,,,0.00,weatherlink.com 1.10,2013-07-12 14:30:00,
2013-07-12 10:45:00,68.6,58.0,30.12,West,276,2.0,5.0,69,0.00,,,0.00,weatherlink.com 1.10,2013-07-12 14:45:00,
2013-07-12 11:00:00,69.6,59.0,30.12,NW,321,2.0,3.0,70,0.00,,,0.00,weatherlink.com 1.10,2013-07-12 15:00:00,
2013-07-12 11:15:00,71.4,59.0,30.12,NW,313,3.0,3.0,66,0.00,,,0.00,weatherlink.com 1.10,2013-07-12 15:15:00,
2013-07-12 11:30:00,72.3,58.0,30.11,NNE,22,1.0,5.0,61,0.00,,,0.00,weatherlink.com 1.10,2013-07-12 15:30:00,
2013-07-12 11:45:00,72.6,59.0,30.12,WNW,292,0.0,3.0,62,0.00,,,0.00,weatherlink.com 1.10,2013-07-12 15:45:00,
2013-07-12 12:00:00,73.3,59.0,30.12,NNE,32,2.0,3.0,61,0.00,,,0.00,weatherlink.com 1.10,2013-07-12 16:00:00,
2013-07-12 12:15:00,73.2,60.0,30.12,NNE,14,0.0,4.0,64,0.00,,,0.00,weatherlink.com 1.10,2013-07-12 16:15:00,
2013-07-12 12:30:00,71.9,58.0,30.12,NNW,339,2.0,4.0,62,0.00,,,0.00,weatherlink.com 1.10,2013-07-12 16:30:00,
2013-07-12 12:45:00,71.6,60.0,30.11,West,271,1.0,4.0,68,0.00,,,0.00,weatherlink.com 1.10,2013-07-12 16:45:00,
2013-07-12 13:00:00,71.3,62.0,30.11,NNE,26,0.0,8.0,72,0.00,,,0.00,weatherlink.com 1.10,2013-07-12 17:00:00,
2013-07-12 13:15:00,71.5,62.0,30.11,WNW,301,2.0,6.0,72,0.00,,,0.00,weatherlink.com 1.10,2013-07-12 17:15:00,
2013-07-12 13:30:00,72.0,63.0,30.11,NW,311,3.0,5.0,74,0.00,,,0.00,weatherlink.com 1.10,2013-07-12 17:30:00,
2013-07-12 14:30:00,71.5,63.0,30.11,ESE,104,1.0,5.0,74,0.00,,,0.00,weatherlink.com 1.10,2013-07-12 18:30:00,
2013-07-12 14:45:00,71.6,62.0,30.11,NW,321,0.0,5.0,72,0.00,,,0.00,weatherlink.com 1.10,2013-07-12 18:45:00,
2013-07-12 15:00:00,72.9,63.0,30.11,NNW,340,3.0,5.0,72,0.00,,,0.00,weatherlink.com 1.10,2013-07-12 19:00:00,
2013-07-12 15:15:00,73.1,63.0,30.11,NNW,328,2.0,7.0,70,0.00,,,0.00,weatherlink.com 1.10,2013-07-12 19:15:00,
2013-07-12 15:45:00,72.3,62.0,30.11,WNW,284,1.0,6.0,70,0.00,,,0.00,weatherlink.com 1.10,2013-07-12 19:45:00,
2013-07-12 16:00:00,72.4,63.0,30.11,SSE,156,1.0,7.0,72,0.00,,,0.00,weatherlink.com 1.10,2013-07-12 20:00:00,
2013-07-12 16:15:00,72.6,62.0,30.11,West,278,1.0,3.0,70,0.00,,,0.00,weatherlink.com 1.10,2013-07-12 20:15:00,
2013-07-12 16:30:00,72.2,61.0,30.11,NNW,341,2.0,6.0,68,0.00,,,0.00,weatherlink.com 1.10,2013-07-12 20:30:00,
2013-07-12 16:45:00,71.7,61.0,30.11,North,11,1.0,4.0,69,0.00,,,0.00,weatherlink.com 1.10,2013-07-12 20:45:00,
2013-07-12 17:00:00,71.8,61.0,30.11,NW,315,2.0,5.0,69,0.00,,,0.00,weatherlink.com 1.10,2013-07-12 21:00:00,
2013-07-12 17:15:00,71.9,61.0,30.11,WNW,297,2.0,3.0,69,0.00,,,0.00,weatherlink.com 1.10,2013-07-12 21:15:00,
2013-07-12 18:00:00,70.6,61.0,30.11,NW,326,0.0,4.0,71,0.00,,,0.00,weatherlink.com 1.10,2013-07-12 22:00:00,
2013-07-12 18:15:00,70.6,61.0,30.11,NW,316,1.0,2.0,71,0.00,,,0.00,weatherlink.com 1.10,2013-07-12 22:15:00,
2013-07-12 18:30:00,70.3,62.0,30.11,NW,316,0.0,2.0,74,0.00,,,0.00,weatherlink.com 1.10,2013-07-12 22:30:00,
2013-07-12 18:46:00,69.7,61.0,30.11,NW,314,0.0,2.0,74,0.00,,,0.00,weatherlink.com 1.10,2013-07-12 22:46:00,
2013-07-12 19:15:00,69.0,61.0,30.12,NW,326,0.0,2.0,75,0.00,,,0.00,weatherlink.com 1.10,2013-07-12 23:15:00,
2013-07-12 19:30:00,68.7,61.0,30.12,WNW,287,1.0,2.0,75,0.00,,,0.00,weatherlink.com 1.10,2013-07-12 23:30:00,
2013-07-12 19:45:00,68.3,61.0,30.12,WNW,288,0.0,1.0,78,0.00,,,0.00,weatherlink.com 1.10,2013-07-12 23:45:00,
2013-07-12 20:00:00,67.5,61.0,30.12,WNW,290,0.0,0.0,80,0.00,,,0.00,weatherlink.com 1.10,2013-07-13 00:00:00,
2013-07-12 20:15:00,66.6,61.0,30.13,WNW,290,0.0,0.0,82,0.00,,,0.00,weatherlink.com 1.10,2013-07-13 00:15:00,
2013-07-12 20:30:00,65.0,60.0,30.12,WNW,289,0.0,0.0,84,0.00,,,0.00,weatherlink.com 1.10,2013-07-13 00:30:00,
2013-07-12 20:45:00,63.9,60.0,30.13,WNW,290,0.0,0.0,86,0.00,,,0.00,weatherlink.com 1.10,2013-07-13 00:45:00,
2013-07-12 21:01:00,63.1,60.0,30.13,WNW,290,0.0,0.0,88,0.00,,,0.00,weatherlink.com 1.10,2013-07-13 01:01:00,
2013-07-12 21:31:00,61.8,59.0,30.15,WSW,239,0.0,1.0,90,0.00,,,0.00,weatherlink.com 1.10,2013-07-13 01:31:00,
2013-07-12 21:46:00,61.7,59.0,30.15,WSW,239,0.0,1.0,90,0.00,,,0.00,weatherlink.com 1.10,2013-07-13 01:46:00,
2013-07-12 22:01:00,62.1,59.0,30.15,WSW,239,0.0,0.0,88,0.00,,,0.00,weatherlink.com 1.10,2013-07-13 02:01:00,
2013-07-12 22:31:00,63.5,59.0,30.15,NE,51,0.0,1.0,85,0.00,,,0.00,weatherlink.com 1.10,2013-07-13 02:31:00,
2013-07-12 22:46:00,63.3,59.0,30.16,SE,132,0.0,2.0,85,0.00,,,0.00,weatherlink.com 1.10,2013-07-13 02:46:00,
2013-07-12 23:01:00,63.3,58.0,30.16,SE,132,1.0,1.0,82,0.00,,,0.00,weatherlink.com 1.10,2013-07-13 03:01:00,
2013-07-12 23:16:00,63.3,58.0,30.16,ESE,117,1.0,1.0,83,0.00,,,0.00,weatherlink.com 1.10,2013-07-13 03:16:00,
2013-07-12 23:31:00,63.2,58.0,30.16,SE,129,1.0,1.0,82,0.00,,,0.00,weatherlink.com 1.10,2013-07-13 03:31:00,
2013-07-12 23:46:00,63.3,57.0,30.17,SE,127,1.0,1.0,81,0.00,,,0.00,weatherlink.com 1.10,2013-07-13 03:46:00,